Weather History for YSRI - August, 2013

Change the Weather History Date:

Tuesday, August 6, 2013

  Actual Average (YSSY) Record (YSSY)
Temperature  
Mean Temperature 60 °F -  
Max Temperature 73 °F 67 °F 75 °F (2011)
Min Temperature 46 °F 42 °F 42 °F (1996)
Degree Days  
Heating Degree Days 6    
Growing Degree Days 10 (Base 50)    
Moisture  
Dew Point 39 °F    
Average Humidity 49    
Maximum Humidity 76    
Minimum Humidity 27    
Precipitation  
Precipitation 0.00 in 0.07 in - ()
Sea Level Pressure  
Sea Level Pressure 29.86 in    
Wind  
Wind Speed 9 mph ()    
Max Wind Speed 23 mph    
Max Gust Speed 34 mph    
Visibility 6.2 miles    
Events      
Averages and records for this station are not official NWS values.
T = Trace of Precipitation, MM = Missing Value Source: Averaged Metar Reports

Daily Weather History Graph

Daily Weather History Graph

Search for Another Location

Airport or City:

Trip Planner

Search our weather history database for the weather conditions in past years. The results will help you decide how hot, cold, wet, or windy it might be!

Date:

Astronomy

Aug. 06, 2013 Rise Set
Actual Time 6:44 AM AEST 5:21 PM AEST
Civil Twilight 6:18 AM AEST 5:47 PM AEST
Nautical Twilight 5:48 AM AEST 6:17 PM AEST
Astronomical Twilight 5:19 AM AEST 6:46 PM AEST
Moon 5:50 AM AEST (8/6) 4:51 PM AEST (8/6)
Length of Visible Light 11h 28m
Length of Day
10h 36m
Waning Crescent, 1% of the Moon is Illuminated
Aug 6
Waning Crescent
Aug 7
New
Aug 14
First Quarter
Aug 21
Full
Aug 28
Last Quarter

Hourly Weather History & Observations

Time (AEST) Temp. Windchill Dew Point Humidity Pressure Visibility Wind Dir Wind Speed Gust Speed Precip Events Conditions
12:00 AM 51.8 °F - 39.2 °F 62% 29.98 in 6.2 mi NNW 5.8 mph - N/A   Unknown
12:30 AM 48.2 °F - 39.2 °F 71% 29.98 in 6.2 mi ENE 4.6 mph - N/A   Unknown
1:00 AM 46.4 °F 43.5 °F 39.2 °F 76% 29.98 in 6.2 mi NNE 5.8 mph - N/A   Unknown
1:30 AM 50.0 °F - 41.0 °F 71% 29.95 in 6.2 mi North 5.8 mph - N/A   Unknown
2:00 AM 51.8 °F - 41.0 °F 67% 29.95 in 6.2 mi NNE 6.9 mph - N/A   Unknown
2:30 AM 48.2 °F - 39.2 °F 71% 29.95 in 6.2 mi Calm Calm - N/A   Unknown
3:00 AM 46.4 °F 42.9 °F 39.2 °F 76% 29.92 in 6.2 mi NNE 6.9 mph - N/A   Unknown
3:30 AM 48.2 °F - 39.2 °F 71% 29.92 in 6.2 mi NNE 5.8 mph - N/A   Unknown
4:00 AM 48.2 °F - 39.2 °F 71% 29.92 in 6.2 mi North 6.9 mph - N/A   Unknown
4:30 AM 50.0 °F - 39.2 °F 66% 29.92 in 6.2 mi NNE 6.9 mph - N/A   Unknown
5:00 AM 48.2 °F - 41.0 °F 76% 29.92 in 6.2 mi North 8.1 mph - N/A   Unknown
5:30 AM 48.2 °F - 39.2 °F 71% 29.92 in 6.2 mi NNE 4.6 mph - N/A   Unknown
6:00 AM 48.2 °F - 39.2 °F 71% 29.92 in 6.2 mi NNE 8.1 mph - N/A   Unknown
6:30 AM 50.0 °F - 39.2 °F 66% 29.92 in 6.2 mi North 6.9 mph - N/A   Unknown
7:00 AM 55.4 °F - 41.0 °F 58% 29.89 in 6.2 mi NW 12.7 mph - N/A   Unknown
7:30 AM 57.2 °F - 39.2 °F 51% 29.92 in 6.2 mi North 6.9 mph - N/A   Unknown
8:00 AM 59.0 °F - 39.2 °F 48% 29.89 in 6.2 mi NNE 11.5 mph - N/A   Unknown
8:30 AM 60.8 °F - 41.0 °F 48% 29.89 in 6.2 mi North 13.8 mph - N/A   Unknown
9:00 AM 62.6 °F - 41.0 °F 45% 29.89 in 6.2 mi North 12.7 mph - N/A   Unknown
9:30 AM 62.6 °F - 41.0 °F 45% 29.89 in 6.2 mi North 10.4 mph - N/A   Unknown
9:49 AM 66.2 °F - 37.4 °F 35% 29.86 in 6.2 mi NW 18.4 mph - N/A   Unknown
10:00 AM 66.2 °F - 37.4 °F 35% 29.86 in 6.2 mi NNW 21.9 mph - N/A   Unknown
10:30 AM 66.2 °F - 39.2 °F 37% 29.86 in 6.2 mi NNW 20.7 mph - N/A   Unknown
11:00 AM 68.0 °F - 39.2 °F 35% 29.83 in 6.2 mi NNW 20.7 mph - N/A   Unknown
11:30 AM 69.8 °F - 39.2 °F 33% 29.83 in 6.2 mi NNW 17.3 mph - N/A   Unknown
12:00 PM 71.6 °F - 41.0 °F 33% 29.83 in 6.2 mi NNW 11.5 mph - N/A   Unknown
12:30 PM 69.8 °F - 39.2 °F 33% 29.80 in 6.2 mi NW 9.2 mph - N/A   Mostly Cloudy
1:00 PM 69.8 °F - 39.2 °F 33% 29.77 in 6.2 mi NW 10.4 mph - N/A   Overcast
1:12 PM 71.6 °F - 37.4 °F 29% 29.77 in 6.2 mi West 18.4 mph 34.5 mph N/A   Overcast
1:30 PM 71.6 °F - 37.4 °F 29% 29.77 in 6.2 mi West 10.4 mph 31.1 mph N/A   Overcast
2:00 PM 71.6 °F - 35.6 °F 27% 29.77 in 6.2 mi WNW 20.7 mph - N/A   Mostly Cloudy
2:16 PM 73.4 °F - 37.4 °F 27% 29.77 in 6.2 mi West 20.7 mph 32.2 mph N/A   Scattered Clouds
2:30 PM 71.6 °F - 37.4 °F 29% 29.77 in 6.2 mi West 18.4 mph - N/A   Scattered Clouds
3:00 PM 73.4 °F - 37.4 °F 27% 29.77 in 6.2 mi WSW 13.8 mph - N/A   Mostly Cloudy
3:39 PM 73.4 °F - 37.4 °F 27% 29.77 in 6.2 mi WNW 17.3 mph 29.9 mph N/A   Scattered Clouds
4:00 PM 71.6 °F - 35.6 °F 27% 29.77 in 6.2 mi WNW 23.0 mph - N/A   Unknown
4:19 PM 69.8 °F - 37.4 °F 31% 29.77 in 6.2 mi WNW 17.3 mph 28.8 mph N/A   Unknown
4:30 PM 69.8 °F - 37.4 °F 31% 29.77 in 6.2 mi West 17.3 mph - N/A   Unknown
5:00 PM 69.8 °F - 37.4 °F 31% 29.80 in 6.2 mi WNW 11.5 mph - N/A   Unknown
5:30 PM 66.2 °F - 37.4 °F 35% 29.80 in 6.2 mi WNW 8.1 mph - N/A   Unknown
6:00 PM 64.4 °F - 39.2 °F 40% 29.83 in 6.2 mi NNW 10.4 mph - N/A   Unknown
6:30 PM 64.4 °F - 37.4 °F 37% 29.83 in 6.2 mi NW 12.7 mph - N/A   Unknown
7:00 PM 62.6 °F - 39.2 °F 42% 29.86 in 6.2 mi WNW 9.2 mph - N/A   Unknown
7:30 PM 60.8 °F - 39.2 °F 45% 29.86 in 6.2 mi NNW 8.1 mph - N/A   Scattered Clouds
8:00 PM 59.0 °F - 41.0 °F 51% 29.86 in 6.2 mi NW 4.6 mph - N/A   Unknown
8:30 PM 59.0 °F - 41.0 °F 51% 29.89 in 6.2 mi NNW 6.9 mph - N/A   Unknown
9:00 PM 59.0 °F - 41.0 °F 51% 29.89 in 6.2 mi NNW 5.8 mph - N/A   Unknown
9:30 PM 57.2 °F - 39.2 °F 51% 29.89 in 6.2 mi North 5.8 mph - N/A   Scattered Clouds
10:00 PM 55.4 °F - 39.2 °F 54% 29.89 in 6.2 mi NW 2.3 mph - N/A   Scattered Clouds
10:30 PM 55.4 °F - 41.0 °F 58% 29.89 in 6.2 mi West 2.3 mph - N/A   Scattered Clouds
11:00 PM 51.8 °F - 41.0 °F 67% 29.89 in 6.2 mi South 1.2 mph - N/A   Scattered Clouds
11:30 PM 51.8 °F - 42.8 °F 71% 29.89 in 6.2 mi SW 8.1 mph - N/A   Overcast